Theta_e
314 315 315 315 315 316 316 315 314 312 313 315 315 316 315 314 315 316 317 317 314 314 315 315 317 316 318 322 320 322 332 334 333 334 335 336 335 335 337 338 339 339 339 339 339 339 339 338 337 332 328 328 330 332 333 331 331 333 335 336 337 337 336 334 334 333 332 331 330 329 328 326 329 331 332 334 334 335 334 333 333 333 334 334 334 333
314 315 316 315 315 316 318 320 318 316 316 315 315 315 314 315 316 317 319 316 315 317 315 316 318 317 321 325 320 322 334 335 332 334 333 335 335 334 336 338 339 339 339 340 340 339 339 338 336 331 327 328 328 329 330 329 330 333 334 336 336 336 335 334 333 333 332 331 329 329 329 328 330 332 332 333 333 334 333 332 333 333 333 333 333 333
316 316 316 314 314 315 317 320 318 318 318 317 316 315 316 317 316 320 323 317 316 319 317 317 317 319 329 331 325 325 332 334 332 335 335 334 335 333 335 338 339 340 340 340 340 339 339 338 336 332 330 329 327 326 327 329 331 332 333 335 336 334 334 334 333 334 334 332 328 329 330 330 331 332 332 333 333 333 332 332 333 333 333 332 331 331
316 317 315 313 313 315 317 318 317 316 318 319 318 316 316 317 315 320 323 317 320 324 321 321 322 330 337 333 327 321 322 331 334 333 335 334 334 334 334 337 338 339 340 340 340 339 339 338 336 334 333 332 328 326 326 329 330 330 332 335 335 334 334 333 333 334 334 334 332 331 332 332 333 333 333 334 333 332 332 332 332 332 333 332 331 330
316 315 314 313 314 316 316 317 317 316 318 321 321 317 315 317 318 319 319 320 327 329 327 326 326 337 341 330 326 320 316 327 334 332 333 334 333 333 334 336 337 337 339 339 339 339 338 338 336 335 335 333 330 326 325 327 328 329 331 335 335 334 334 333 334 335 334 335 334 331 332 334 335 334 334 334 333 332 332 333 332 332 332 333 331 330
315 314 314 314 314 314 315 315 317 318 318 320 323 322 318 319 322 319 319 323 324 323 325 323 319 328 339 332 327 325 319 320 329 333 333 332 332 331 332 336 338 338 339 339 339 339 338 337 337 336 335 334 332 329 326 326 328 329 331 334 336 334 333 334 334 335 334 334 334 332 332 333 334 334 334 334 333 332 332 333 332 332 332 333 332 332
315 315 315 315 315 314 314 314 314 318 319 318 324 326 321 320 323 320 319 321 320 320 324 322 317 322 331 333 329 327 324 320 322 328 331 331 332 330 331 335 338 339 339 339 339 338 338 337 337 336 335 334 332 329 326 326 328 329 331 334 336 334 333 334 334 335 335 334 334 333 333 333 333 333 333 333 333 333 333 332 332 332 332 333 332 333
316 317 316 315 315 314 314 313 314 317 318 321 327 325 320 320 321 319 317 318 321 323 325 326 322 319 322 329 327 323 328 331 327 325 326 329 332 332 330 331 336 339 339 339 340 339 339 338 338 337 336 334 333 332 331 331 330 329 331 333 334 335 334 334 334 334 335 335 335 335 334 334 334 333 333 333 333 332 333 332 332 332 332 332 332 332
318 318 318 316 315 314 314 314 314 315 317 324 329 321 319 319 317 319 317 319 325 322 322 329 322 315 321 329 327 323 329 336 332 330 328 326 328 332 331 329 333 337 338 338 338 338 338 337 338 337 336 335 333 333 333 334 333 330 330 331 333 336 335 334 334 333 335 336 335 335 335 335 334 334 334 333 332 332 333 332 332 332 332 332 332 331
318 317 316 316 315 315 314 315 315 317 318 323 325 320 319 317 316 323 321 321 329 322 321 331 322 313 321 328 330 331 333 332 330 332 330 326 327 330 331 330 332 335 336 336 337 337 337 337 337 337 336 334 332 331 331 332 333 333 333 333 334 336 336 335 334 334 335 335 335 334 335 335 334 334 333 332 332 332 332 332 332 332 332 332 331 330
314 315 316 315 315 315 315 315 315 317 319 318 320 318 318 320 322 331 334 326 325 322 325 331 323 314 316 323 331 334 331 330 330 331 330 329 331 332 333 333 334 334 334 334 335 335 335 336 336 336 335 334 331 330 329 329 331 333 336 336 336 337 337 336 336 336 336 335 333 332 333 334 332 332 333 332 331 331 331 331 331 331 331 331 331 330
314 313 316 316 316 315 316 317 315 317 319 317 320 318 317 325 325 326 333 325 318 324 331 328 319 315 317 322 330 331 329 329 328 328 329 331 331 331 332 334 335 335 334 334 334 334 334 335 334 335 334 332 331 330 329 329 329 330 333 335 336 337 336 335 336 336 334 333 332 330 330 330 329 330 332 332 331 330 330 329 330 331 330 330 330 328
318 315 315 316 317 316 316 319 316 317 318 317 321 320 316 321 320 320 325 323 321 327 329 324 316 316 319 323 328 331 330 329 327 327 328 329 329 328 329 332 334 334 334 333 333 332 332 332 332 333 333 332 332 331 330 331 330 329 329 331 334 335 332 332 336 335 333 332 332 332 331 329 329 331 331 331 332 330 329 329 329 330 329 328 328 328
319 319 316 313 316 317 316 318 317 319 319 315 319 319 318 319 318 319 322 321 321 322 323 323 315 315 324 327 327 330 331 328 327 327 328 328 328 328 328 330 332 333 333 331 331 330 329 328 329 330 330 331 331 332 332 331 331 330 330 330 332 334 331 332 335 335 332 332 332 333 333 330 330 332 331 331 331 330 330 329 328 328 328 327 328 329
318 320 321 316 315 317 317 318 320 323 320 316 318 319 320 325 323 321 322 320 319 320 323 322 313 319 331 330 327 328 329 328 327 327 327 328 328 327 327 328 330 330 331 331 330 330 329 328 328 328 329 328 328 329 330 330 330 330 331 331 332 334 333 333 334 334 333 333 334 333 331 329 329 331 331 331 331 330 330 329 328 327 327 327 328 329
314 320 325 318 314 317 317 316 319 320 319 317 317 316 316 323 325 323 325 327 326 321 321 323 321 326 332 330 327 328 328 327 327 326 327 327 327 328 328 327 328 328 328 329 329 329 329 329 329 329 328 328 328 327 326 327 328 329 331 332 332 333 333 332 332 332 331 332 333 331 328 328 329 330 330 330 331 331 329 328 328 327 326 328 330 330
314 322 327 317 314 318 316 316 317 317 321 320 315 315 316 318 320 320 322 324 323 319 320 327 332 330 329 330 328 327 328 328 326 326 327 327 327 327 327 327 327 327 327 327 327 328 329 329 328 328 328 328 328 326 325 327 328 329 330 331 332 332 331 331 331 329 328 329 330 329 328 328 327 328 330 330 330 330 330 329 328 326 328 330 330 330
320 322 327 318 313 316 315 316 317 316 320 321 315 315 316 313 318 326 326 321 317 320 323 329 334 332 331 333 329 327 330 328 326 326 326 326 326 326 326 326 326 327 326 326 326 326 327 327 327 327 327 326 326 327 328 329 327 325 325 328 330 332 330 330 331 330 328 329 330 329 330 329 326 327 329 329 328 329 329 329 328 328 330 331 330 330
319 318 326 323 315 316 316 315 317 316 316 318 317 317 318 319 322 324 323 319 317 321 321 321 328 331 332 333 329 329 331 328 326 326 325 325 325 325 325 326 326 326 326 326 326 326 326 326 327 327 328 327 327 328 330 329 326 323 322 323 327 331 329 328 331 330 328 329 331 330 329 328 326 326 328 328 328 327 327 328 329 330 330 330 330 330
320 318 324 326 318 316 316 317 320 319 315 315 315 315 319 326 326 319 318 319 319 322 321 320 328 332 330 330 329 329 330 328 327 326 324 325 325 325 326 325 326 326 326 327 327 327 328 327 328 328 329 328 327 328 328 328 327 325 325 323 322 328 329 328 330 330 327 328 330 329 327 326 325 326 327 327 327 327 327 328 330 330 329 328 328 328
317 316 322 329 321 316 318 318 320 320 317 315 315 316 316 319 320 317 318 320 319 324 326 324 328 330 328 328 328 328 328 326 326 325 324 325 325 325 326 325 325 326 326 327 327 328 328 328 328 328 328 328 328 328 328 328 328 328 327 326 321 324 327 325 326 327 327 329 329 327 326 325 325 327 328 327 327 327 326 326 329 330 328 327 327 327
317 318 323 328 320 318 321 318 317 318 316 316 316 317 316 316 319 318 320 323 322 324 328 328 328 326 326 327 327 327 327 325 325 325 324 324 324 324 324 324 325 326 326 327 327 327 328 327 327 328 328 328 328 329 329 329 330 329 329 328 324 323 324 323 324 325 327 330 330 327 326 326 325 327 328 327 327 327 325 325 328 329 329 328 328 327
325 324 320 320 320 321 319 316 318 317 315 318 320 318 317 318 321 320 324 330 325 321 326 331 329 324 324 326 326 326 326 325 324 324 323 323 322 322 321 322 323 324 325 326 326 326 326 326 327 327 328 328 328 328 329 329 329 329 329 330 328 327 326 326 328 328 328 330 330 328 327 326 325 327 328 327 326 327 325 326 328 330 329 329 328 328
326 323 318 320 326 328 321 317 320 319 319 325 328 325 321 319 321 324 330 335 329 322 326 332 330 325 323 325 325 325 325 324 323 323 322 322 320 320 319 319 320 321 323 324 325 325 325 325 326 326 326 327 327 327 327 328 329 328 329 330 330 329 328 329 331 331 329 330 330 328 326 325 325 328 329 327 327 327 327 328 329 329 329 329 329 327
322 322 325 323 320 324 323 320 323 323 322 326 327 326 323 323 326 324 326 333 329 321 325 332 330 326 325 324 324 324 323 322 322 321 321 320 319 317 317 317 317 318 320 321 323 323 323 324 324 324 325 326 326 327 326 326 328 328 328 329 330 329 329 330 332 331 331 331 330 328 326 325 326 328 328 327 328 328 329 329 329 328 329 328 327 324
324 324 333 332 322 323 324 321 324 326 325 325 326 325 325 327 330 324 323 334 332 323 325 331 328 326 327 324 323 322 321 321 321 319 319 318 316 316 315 315 315 315 317 318 319 320 321 321 322 322 322 323 324 325 326 327 327 327 327 328 329 328 329 330 331 331 331 331 331 329 327 327 328 329 328 327 328 329 329 329 329 329 328 325 324 322
330 326 330 333 330 328 325 322 324 326 326 327 326 326 326 327 330 332 334 336 331 325 325 325 325 328 328 325 323 321 320 320 319 318 317 316 315 314 314 313 313 313 313 314 316 317 318 319 320 321 321 321 322 323 324 325 326 327 327 328 328 327 328 329 330 331 331 330 330 330 328 328 329 329 328 328 328 329 328 327 327 325 323 322 323 322
336 329 326 328 326 323 323 322 323 323 324 325 325 325 326 327 331 339 339 328 325 331 329 323 326 330 328 325 323 321 319 318 317 316 315 314 313 313 312 312 312 311 311 312 314 315 315 316 318 320 321 321 321 322 322 323 325 326 326 327 327 327 327 327 328 329 330 329 329 328 328 328 328 327 328 328 327 327 327 324 322 321 320 323 325 323
333 329 325 326 325 322 323 322 321 321 320 321 322 323 325 326 328 334 332 325 326 335 331 324 326 327 324 322 320 317 316 314 313 313 313 312 312 312 311 310 310 310 309 310 311 312 312 314 316 318 319 320 321 321 321 322 323 324 324 325 325 326 326 327 326 327 328 328 327 328 328 328 327 326 327 327 327 326 326 324 321 321 322 325 326 323
328 327 322 324 326 323 323 321 319 320 319 319 320 320 321 324 324 325 325 323 324 328 326 323 323 321 318 317 314 313 312 310 310 310 310 310 310 310 310 309 308 308 308 308 309 309 310 313 315 317 318 318 320 320 320 320 320 321 322 324 324 324 325 325 326 326 327 327 327 327 328 328 327 326 326 327 327 326 326 324 322 322 324 325 325 323
324 324 321 325 326 322 322 321 318 318 318 318 318 318 320 323 323 322 323 321 321 322 321 320 320 317 314 312 311 310 309 309 308 308 307 308 308 308 307 307 307 307 306 307 308 308 309 312 315 317 317 317 318 319 320 320 320 320 321 321 322 323 324 324 325 325 327 327 327 327 327 327 327 326 326 327 326 324 324 323 322 323 325 325 324 322
324 323 321 326 326 321 320 320 317 317 319 319 318 317 318 322 323 320 320 320 320 321 320 319 319 315 312 309 308 308 307 307 307 306 306 306 306 306 306 305 305 305 306 307 307 308 310 312 313 315 316 316 317 317 318 319 320 321 321 320 321 323 324 324 324 325 326 326 326 327 327 327 327 326 326 326 324 322 323 324 323 324 325 324 322 322
324 322 322 326 325 320 320 320 318 321 324 322 318 315 315 319 320 319 318 318 318 319 319 319 317 312 309 308 307 306 306 305 305 305 305 305 304 304 304 304 304 304 305 306 306 307 309 310 310 312 313 315 316 316 317 318 319 320 320 321 321 322 323 324 324 325 325 325 325 327 327 326 326 326 326 326 324 322 323 323 323 324 324 323 322 322
322 322 322 324 323 321 320 319 318 322 324 321 316 314 315 317 317 318 316 315 315 315 314 314 311 308 307 307 306 305 304 303 303 303 304 304 303 303 303 304 304 304 304 305 305 306 307 308 309 309 311 313 315 316 317 317 318 319 320 321 321 321 322 324 324 325 325 324 324 326 326 326 326 325 325 326 325 323 323 323 323 323 323 323 323 323
325 323 322 323 323 321 318 317 320 322 320 316 313 313 314 314 314 314 314 312 312 311 310 309 308 307 306 305 304 304 303 302 302 302 302 302 302 303 303 303 304 304 304 305 305 306 306 307 308 310 311 312 312 314 316 316 317 318 319 320 320 320 321 322 323 324 324 324 323 324 325 326 326 325 325 325 324 323 323 323 322 322 321 321 322 322
327 324 322 322 321 320 318 317 320 320 315 313 313 312 313 314 313 314 314 312 311 310 309 308 307 306 305 304 303 303 302 301 301 301 301 301 301 302 302 302 303 303 304 304 305 305 305 306 308 309 310 312 312 314 315 316 316 318 319 319 320 320 320 320 320 321 322 323 322 322 323 324 324 324 324 324 324 323 323 322 321 320 320 321 321 321
325 325 323 321 318 318 318 316 316 316 314 315 314 311 311 312 312 314 314 312 310 309 308 307 306 305 305 304 303 302 302 302 301 300 300 301 301 301 301 301 301 302 302 303 304 304 304 305 306 307 308 310 313 314 315 315 315 317 318 318 319 320 320 320 319 319 320 321 321 321 321 322 322 322 322 322 322 323 322 321 320 319 320 321 321 321
320 322 323 322 317 315 316 315 315 316 316 315 312 309 309 309 309 311 313 312 311 310 308 306 306 305 305 304 303 303 304 304 301 300 300 300 300 301 301 301 301 301 302 302 303 304 304 304 305 306 307 309 312 313 315 315 316 317 317 318 318 318 319 319 319 319 319 320 320 320 320 320 321 321 321 320 320 320 320 320 320 319 320 320 321 321
316 318 323 324 317 315 317 317 316 317 315 312 310 307 307 307 308 311 314 314 311 309 308 307 306 306 305 305 304 305 307 305 301 300 300 300 300 300 301 301 300 300 301 301 301 302 302 303 304 305 306 307 309 310 312 314 315 316 317 317 316 317 318 318 318 318 318 319 319 319 319 319 320 320 320 320 319 320 320 320 319 319 318 318 318 318
318 319 323 323 318 316 317 316 314 313 311 308 306 305 306 306 308 313 317 315 310 308 308 307 307 306 306 306 305 304 305 304 301 299 299 299 300 300 300 300 300 300 300 301 301 300 300 301 302 303 303 305 306 307 308 311 314 314 314 315 315 315 316 316 316 317 317 318 319 319 319 319 319 319 319 320 320 320 320 320 319 319 317 317 317 316
316 317 319 319 317 316 315 313 311 310 308 306 305 304 306 308 311 316 316 311 307 306 308 307 307 306 305 305 304 302 301 301 300 299 299 299 300 300 300 300 300 300 300 300 301 301 301 300 300 300 300 301 303 304 305 308 310 310 309 310 310 310 312 313 314 315 316 317 318 319 319 319 319 319 319 319 318 318 318 319 319 318 317 317 316 315
314 315 316 317 315 314 312 310 310 310 307 304 304 305 306 311 315 314 309 306 305 305 305 306 306 305 304 303 302 300 299 299 299 299 299 299 300 299 300 300 300 300 300 300 300 301 301 300 300 299 299 299 300 301 302 305 306 305 305 305 304 304 306 309 311 313 315 316 317 317 318 318 318 318 318 318 318 317 317 318 319 318 318 317 315 314
310 312 313 311 310 311 311 311 313 313 307 302 304 307 308 310 311 307 304 303 304 303 303 303 303 303 303 301 299 299 299 298 299 299 299 300 300 300 300 300 300 300 300 300 300 300 300 300 300 300 300 299 299 299 300 302 303 303 303 303 303 303 304 306 307 309 310 313 315 316 316 317 317 317 317 318 318 318 317 318 318 318 318 318 316 315
307 309 311 308 306 311 314 312 310 308 303 302 305 307 307 308 307 306 304 303 301 302 302 301 300 301 302 300 298 298 299 298 299 299 299 300 300 300 300 300 300 300 300 300 300 300 299 299 298 298 299 299 299 299 299 300 300 300 301 301 302 303 303 304 305 306 306 308 310 312 314 314 314 315 314 315 315 316 316 317 317 317 317 317 317 316
305 306 307 305 303 306 309 306 304 303 302 304 305 306 306 306 305 306 305 302 300 301 301 300 299 299 300 299 299 299 299 299 299 299 299 300 300 299 299 299 298 298 298 299 299 299 299 299 298 297 298 298 298 298 299 299 299 299 299 300 300 300 301 301 303 305 305 305 306 307 309 311 311 312 312 312 313 313 314 314 314 313 313 313 313 313
304 303 304 304 303 303 304 303 302 302 303 305 306 306 306 305 304 305 304 302 301 301 301 300 300 299 299 300 300 299 299 299 299 299 299 299 299 299 299 298 298 298 298 298 298 298 298 298 298 298 297 297 297 298 298 298 299 299 300 300 299 299 299 299 300 301 302 302 303 303 304 306 308 308 309 310 310 311 311 312 312 312 311 311 311 311
304 304 304 304 303 304 304 302 301 302 302 303 304 304 304 303 303 303 303 302 301 301 301 301 300 300 300 301 300 300 300 300 300 299 299 300 299 299 299 299 299 299 299 299 298 298 298 298 298 298 297 297 298 300 300 299 299 300 301 300 300 300 300 299 299 299 298 298 298 299 301 303 303 304 306 307 308 308 308 308 310 310 310 309 309 309
304 304 304 303 303 303 303 302 301 301 302 303 303 303 302 302 302 302 302 302 302 302 301 301 301 301 301 300 300 300 300 300 300 300 299 300 299 299 299 299 299 300 299 299 299 298 298 298 297 297 297 296 297 300 301 301 301 301 301 300 300 301 301 300 300 299 298 298 297 297 297 299 299 300 301 302 304 306 306 306 306 307 307 306 306 306
305 304 303 302 302 302 302 301 301 301 301 301 301 302 302 302 301 301 301 301 301 301 301 301 301 301 300 300 300 300 299 299 299 299 300 300 299 299 299 299 299 300 300 299 299 299 299 298 297 297 297 298 298 299 300 301 302 302 301 300 300 300 301 301 300 300 300 300 299 298 297 296 296 297 297 297 299 302 304 304 303 303 304 303 303 302
304 303 302 302 303 303 302 302 302 302 301 300 301 301 301 301 301 301 301 300 300 300 300 300 300 300 300 300 300 300 300 300 299 299 299 299 299 300 299 299 299 299 299 299 299 299 299 299 298 297 298 299 299 299 299 300 301 301 300 300 299 300 300 300 300 300 300 300 300 300 299 298 297 296 296 295 296 297 298 298 297 297 298 298 297 297
303 302 303 304 304 303 303 302 301 301 301 300 300 301 301 301 300 300 300 300 300 300 300 300 300 300 300 300 300 300 300 299 299 299 298 298 299 299 299 298 298 298 298 299 299 298 298 298 298 298 299 299 299 299 299 300 300 300 300 300 299 299 300 300 300 299 299 299 299 300 299 299 299 298 297 296 296 295 295 295 295 295 295 295 295 295
Wind_Speed
5 2 2 5 6 7 6 7 9 7 3 3 3 3 5 5 5 6 9 9 9 9 7 8 8 8 7 7 3 10 14 9 13 18 19 23 24 25 26 27 28 27 26 24 22 21 19 15 10 11 12 11 12 14 15 16 16 18 19 20 22 23 22 21 21 22 22 22 20 20 20 18 20 22 22 21 21 20 19 18 18 19 20 20 20 21
4 4 6 7 8 8 7 8 7 4 4 5 4 5 6 4 5 8 9 6 8 7 4 6 7 7 8 6 3 11 13 10 14 14 15 21 24 27 28 28 29 27 27 26 25 23 20 16 13 14 13 10 10 13 15 16 17 18 19 21 22 22 23 22 22 22 22 23 21 20 20 18 19 21 21 22 21 21 20 19 18 18 20 21 21 22
3 5 9 9 8 7 6 6 5 4 4 4 4 3 5 4 4 7 7 3 3 4 2 4 7 6 8 5 2 7 10 14 26 27 26 28 25 25 29 30 31 29 30 30 28 26 22 18 16 16 14 10 9 11 13 15 17 19 19 22 23 21 22 22 23 23 23 21 19 19 19 18 18 19 21 21 20 20 20 20 19 19 20 21 21 22
3 6 10 10 6 5 7 7 4 3 4 3 4 3 4 5 2 4 5 7 5 2 4 4 4 4 5 6 6 2 8 14 27 31 31 34 32 32 33 34 34 33 34 33 30 28 24 21 19 19 17 14 13 12 13 16 18 20 21 23 23 21 20 21 22 24 23 21 19 19 19 19 19 19 20 22 21 20 19 20 20 21 21 21 22 22
6 9 8 8 6 7 7 8 5 4 4 4 5 5 5 6 4 3 3 7 6 4 2 5 4 5 4 4 8 3 4 9 20 22 22 28 31 32 35 36 37 36 38 37 33 31 27 25 23 21 19 16 16 14 13 16 18 19 20 22 23 20 19 20 22 23 23 22 21 21 21 22 22 21 21 23 24 21 19 19 20 21 20 21 22 22
9 11 6 6 7 8 7 7 6 6 4 5 5 8 9 8 6 3 3 5 6 5 2 4 4 5 5 4 7 5 3 1 10 12 16 23 23 24 32 36 36 36 37 37 35 32 28 26 23 21 20 19 17 14 13 15 18 20 20 21 23 21 20 20 21 22 22 23 23 22 22 23 24 23 23 24 25 23 21 20 20 20 19 21 22 22
5 8 7 7 8 9 8 8 6 8 5 4 5 8 7 3 2 1 4 5 2 3 3 3 5 3 5 5 7 6 6 3 4 7 12 18 18 20 29 33 32 33 35 35 33 32 29 26 23 21 21 19 15 14 15 16 18 21 22 23 24 22 21 21 21 22 23 23 23 23 22 22 23 23 22 23 23 22 20 19 19 19 20 21 22 22
4 7 8 9 9 7 7 7 6 9 6 4 6 6 4 1 4 1 5 4 3 3 4 4 5 3 3 5 6 4 5 6 1 4 9 16 21 21 22 22 26 31 34 35 33 30 26 22 20 20 19 18 13 12 15 19 21 22 22 24 24 24 23 22 22 22 23 24 23 22 22 21 21 22 21 21 21 20 19 18 18 20 22 22 22 22
4 8 10 10 9 6 6 8 8 10 6 6 7 5 3 2 3 1 5 4 2 2 4 6 2 3 2 6 6 5 5 6 7 5 7 14 24 25 21 20 25 30 29 27 25 22 19 17 17 18 18 17 15 12 12 16 20 23 23 23 24 25 24 23 22 22 22 23 21 20 20 19 18 21 21 19 18 17 17 18 18 21 23 23 22 22
4 10 11 10 7 6 9 11 7 9 6 7 5 2 1 2 2 3 5 4 2 4 2 6 1 3 2 6 7 6 4 5 7 7 9 4 8 16 17 17 19 21 18 17 19 19 19 19 19 19 18 18 18 17 15 14 17 20 21 23 25 25 23 23 22 21 21 20 18 16 17 16 16 19 19 17 16 16 17 17 18 20 22 21 20 20
7 10 9 7 8 10 11 11 9 11 7 3 4 2 3 5 4 4 3 4 4 3 5 7 1 5 1 5 5 4 4 4 5 6 8 15 19 17 13 13 12 12 12 14 17 18 18 18 18 18 19 18 17 18 19 17 18 20 19 19 22 24 22 21 21 20 20 18 15 15 15 14 14 16 18 16 16 17 18 18 18 19 20 20 18 17
6 7 6 5 11 12 8 5 7 9 7 6 4 3 2 4 4 4 4 4 4 2 6 6 1 7 3 2 4 4 5 6 6 7 9 15 22 25 21 17 14 12 11 10 11 12 12 13 15 18 19 20 18 19 20 20 21 23 22 18 18 21 20 18 20 21 18 16 15 16 15 14 14 15 16 17 17 19 20 19 19 21 20 20 19 17
4 5 5 5 9 11 9 3 2 1 4 6 4 5 3 1 2 2 3 1 1 4 6 5 1 4 2 1 3 6 7 10 11 12 13 16 22 26 25 21 18 16 14 11 9 6 5 5 8 11 14 17 19 21 22 22 22 24 26 23 18 18 18 17 21 21 16 14 16 17 16 14 15 15 15 17 18 19 21 20 19 22 22 21 20 18
4 6 5 2 4 6 8 6 2 1 2 5 4 5 4 2 2 1 2 1 1 4 6 5 1 1 2 0 4 5 8 12 17 19 20 23 26 26 25 24 20 17 14 12 10 8 6 5 2 2 5 8 12 18 24 25 25 23 24 24 19 16 18 19 21 21 16 16 18 17 16 14 15 16 16 18 19 19 21 21 19 21 23 22 20 19
2 5 3 3 4 3 5 7 7 4 3 4 4 6 5 4 4 3 2 2 3 3 5 4 1 2 4 2 4 2 12 17 20 22 23 25 26 26 27 26 22 18 14 10 8 8 7 5 3 1 4 5 4 8 17 21 24 24 24 25 22 17 18 20 20 18 16 16 17 16 15 15 15 16 16 18 19 19 20 21 20 20 21 21 19 19
4 4 7 6 6 5 5 5 6 7 3 3 3 6 3 5 5 3 3 5 4 0 3 1 1 1 3 4 3 6 14 17 19 21 22 24 24 26 26 23 21 18 14 11 8 6 5 4 3 5 7 6 4 6 10 12 15 20 22 23 21 17 18 18 15 13 14 14 15 15 15 15 16 15 16 18 18 18 19 20 20 19 19 20 20 20
3 4 7 3 4 6 8 7 6 7 4 1 3 4 4 5 7 4 2 1 3 1 3 1 3 1 2 2 2 7 10 11 14 17 19 20 21 22 21 18 18 17 14 11 9 6 4 3 2 1 1 1 2 5 5 4 6 11 15 20 19 17 17 14 10 11 15 16 15 15 15 16 16 16 18 19 19 18 19 20 19 19 19 20 20 20
4 3 7 2 4 7 11 12 6 6 7 4 3 5 2 3 5 4 2 2 3 2 4 0 4 4 3 2 2 6 9 10 11 12 15 17 17 18 17 17 18 18 16 13 10 8 6 5 4 2 2 5 5 2 1 2 1 4 7 11 14 17 14 11 11 12 15 18 17 16 16 16 18 19 20 21 22 20 20 21 20 20 21 21 20 19
3 1 7 4 4 6 7 8 3 1 3 6 5 4 4 3 0 1 2 2 2 3 3 2 2 2 2 2 1 4 7 9 10 10 11 13 14 14 15 18 20 20 19 17 15 14 12 9 7 5 3 4 6 4 3 6 5 5 10 13 9 10 10 7 12 12 12 17 19 16 16 17 19 21 20 21 22 22 22 23 23 23 22 21 20 19
3 2 4 6 2 4 3 3 3 3 3 2 3 0 2 4 3 2 3 4 4 4 2 2 2 1 3 3 2 4 5 8 10 9 9 12 13 12 15 19 19 20 21 20 19 17 15 13 9 6 4 2 4 7 8 8 8 5 6 9 10 4 8 9 11 12 11 17 19 16 17 19 20 20 20 20 21 22 23 23 24 25 24 22 21 20
2 2 2 6 5 2 2 1 7 7 2 1 2 1 1 1 2 2 2 2 4 4 3 3 1 3 4 2 2 5 6 8 11 9 8 12 14 13 15 19 19 20 22 21 20 18 16 15 12 8 5 3 2 4 5 6 6 6 7 4 4 3 9 10 10 11 14 19 20 18 20 21 22 20 20 21 22 24 25 23 23 25 23 23 21 19
2 3 3 3 4 1 2 1 4 8 7 6 4 4 5 4 3 3 2 2 2 4 4 5 3 4 4 1 2 4 6 8 12 13 11 13 17 16 18 21 20 19 20 20 20 18 16 16 15 13 10 7 4 2 0 2 5 7 8 8 8 10 13 14 14 15 17 21 21 20 21 23 23 21 21 23 24 26 26 24 23 24 22 21 20 18
3 4 3 4 2 4 3 6 9 2 3 6 3 1 1 2 4 5 4 4 1 3 2 4 3 3 3 2 3 5 8 9 13 15 14 15 18 19 20 21 20 18 17 17 18 17 16 15 13 12 11 11 9 5 3 2 1 2 3 6 10 14 15 15 16 17 19 21 21 20 21 23 22 21 23 26 27 27 25 23 23 22 21 20 20 19
1 3 3 3 4 3 2 6 13 11 7 5 3 2 1 1 4 6 5 3 3 4 2 4 2 2 2 3 6 10 12 12 13 14 15 17 18 20 21 21 20 18 15 14 14 14 15 15 12 10 9 9 9 8 7 5 2 0 1 4 8 13 15 16 17 19 21 23 21 20 22 24 23 23 26 28 28 26 24 23 23 22 21 20 20 19
1 1 2 2 2 4 3 2 6 8 5 2 3 4 3 1 3 4 2 2 3 2 3 5 2 3 3 4 7 11 12 11 13 14 15 17 18 19 21 21 20 18 16 14 12 10 11 12 11 9 7 6 6 7 8 8 4 2 2 4 6 10 13 15 17 20 23 24 23 22 24 25 25 27 28 29 28 27 26 24 23 22 21 21 20 18
2 2 3 5 4 4 2 2 1 2 2 2 3 7 6 6 5 4 3 3 3 0 3 5 3 3 6 7 7 9 10 10 12 16 17 17 17 18 20 20 20 19 17 15 13 11 10 9 9 8 6 5 4 4 5 7 6 4 3 4 6 8 11 14 16 20 25 26 25 25 26 28 29 29 29 29 29 27 27 26 23 22 21 21 20 18
4 3 3 5 5 5 5 4 3 3 3 2 3 8 8 6 5 5 4 3 4 3 3 1 5 8 9 8 8 9 9 9 9 13 15 15 17 18 19 19 19 19 18 17 17 15 13 12 10 8 7 7 7 5 3 3 4 4 3 3 5 7 10 13 16 19 23 24 23 24 26 29 30 29 29 30 29 27 25 24 21 21 21 21 21 19
4 4 5 5 6 5 6 6 4 5 6 3 3 7 8 7 7 7 4 2 5 6 2 2 6 9 8 7 9 8 9 9 9 12 13 14 16 18 19 19 19 19 18 19 21 20 18 16 13 11 9 8 8 7 4 3 2 2 0 2 4 6 8 11 15 17 19 18 17 19 24 27 28 29 29 28 26 24 22 20 19 20 23 23 21 19
6 2 4 4 8 7 7 9 9 9 7 6 6 6 7 8 9 7 3 1 2 5 5 7 8 8 6 7 8 7 9 11 12 13 14 14 15 16 18 19 19 19 20 20 21 20 19 18 16 13 11 9 8 7 6 5 4 3 3 4 6 7 8 11 14 16 17 17 16 17 22 25 24 26 26 24 21 21 20 18 17 20 25 25 21 19
4 1 2 2 7 7 5 6 9 10 8 7 8 6 5 7 9 7 5 4 5 6 9 11 11 8 6 7 9 9 13 17 18 17 15 14 14 15 17 18 18 19 19 19 19 19 18 17 16 15 13 11 10 9 8 7 7 6 4 4 6 8 8 9 12 14 17 19 18 18 22 24 23 22 22 21 21 21 21 19 18 22 25 23 20 20
4 2 3 2 6 5 6 6 8 10 10 9 8 8 7 6 7 7 5 5 7 7 8 10 10 7 6 9 11 12 15 19 19 16 15 15 14 15 17 17 17 18 18 18 18 18 18 17 16 15 14 13 12 11 9 8 8 9 8 6 5 6 8 9 10 13 15 16 17 20 22 23 24 22 21 22 21 21 22 20 20 24 24 21 21 22
4 3 1 4 5 1 4 4 6 9 12 10 8 9 9 6 5 5 3 2 3 8 10 9 6 4 5 9 13 14 16 19 17 14 14 15 15 15 16 16 16 16 17 18 18 17 17 17 17 16 15 14 13 12 11 8 7 8 9 10 8 7 7 8 6 7 10 10 14 21 21 21 23 22 22 23 21 21 22 21 22 25 24 22 23 24
3 4 2 3 4 1 1 1 1 4 7 5 4 5 6 4 3 5 5 6 3 7 8 5 4 5 6 9 11 11 13 16 16 13 12 12 13 14 14 14 15 16 17 17 17 17 17 16 16 15 14 14 13 12 12 11 10 9 9 8 8 6 6 6 5 4 11 12 13 18 21 21 21 22 22 22 22 24 24 22 23 25 24 23 24 24
4 5 3 2 3 3 4 2 3 3 2 0 2 3 3 2 6 7 7 7 7 6 6 6 7 8 7 8 10 11 12 15 16 15 12 11 13 14 14 15 15 16 17 17 17 18 16 14 14 13 12 12 11 10 9 9 10 9 8 6 6 5 5 4 4 6 8 10 12 15 19 19 17 19 23 23 23 25 25 23 24 26 25 25 26 26
4 4 3 3 3 3 3 3 2 1 3 2 1 3 3 6 10 11 10 9 9 9 10 10 8 9 11 14 16 17 18 19 19 17 14 13 14 15 16 16 16 16 17 17 17 17 16 15 13 11 10 9 9 8 8 7 8 9 8 8 8 8 8 5 4 6 6 6 8 11 15 16 15 17 22 24 25 26 25 26 28 28 27 26 26 25
4 3 3 2 3 3 3 2 2 2 1 1 2 4 4 4 6 8 8 8 7 7 9 10 9 11 16 19 20 20 21 23 22 19 15 14 15 16 17 17 17 17 18 18 16 15 16 15 14 12 11 9 9 9 9 7 7 7 8 9 10 9 10 10 8 8 8 6 6 7 9 13 15 17 20 23 24 24 26 28 28 26 27 27 25 25
5 3 3 3 2 3 3 2 2 3 1 0 2 2 3 4 3 2 3 4 4 5 9 10 9 12 17 20 22 22 21 22 19 16 14 15 15 16 17 17 18 18 17 17 16 15 15 14 14 13 12 11 11 11 10 9 8 8 8 9 10 10 10 10 11 10 8 7 8 7 7 9 13 17 20 21 22 24 25 27 26 23 25 27 26 25
6 3 3 3 2 2 4 3 3 2 3 2 1 2 5 7 7 4 2 3 2 5 12 13 11 12 16 19 20 16 11 10 8 6 10 14 15 16 16 16 17 18 18 18 17 15 14 14 14 13 12 13 13 12 11 11 11 12 12 12 12 12 12 12 13 12 10 9 9 8 7 8 10 14 18 20 23 25 26 26 27 25 25 26 27 24
7 4 3 5 3 2 4 3 3 3 2 1 1 3 8 11 10 5 2 2 1 5 13 15 13 15 16 16 15 9 3 3 3 3 8 13 14 16 16 16 16 18 18 19 19 18 17 15 14 14 13 14 14 12 11 11 12 14 16 15 15 15 15 14 14 13 12 12 11 10 9 9 9 11 13 14 17 22 23 23 24 23 21 20 20 18
6 4 3 4 3 3 3 2 1 1 1 1 2 5 10 13 9 1 3 1 1 6 12 15 14 15 15 14 10 3 2 4 7 8 12 16 17 18 18 17 16 16 17 18 19 19 19 18 17 16 16 16 14 13 12 12 13 16 17 17 18 19 18 16 14 12 11 11 11 10 10 10 10 10 10 10 11 14 17 18 18 17 15 14 13 14
4 3 2 3 3 4 3 2 1 1 1 1 4 8 9 8 3 2 3 2 6 10 12 15 15 13 13 13 10 7 9 14 18 18 18 19 19 19 19 18 17 16 17 17 16 16 17 18 19 20 20 17 14 12 12 12 13 16 17 17 19 20 18 15 12 11 9 9 10 10 10 11 11 10 10 10 10 11 12 14 15 14 14 15 14 14
1 2 2 2 2 2 3 3 1 1 1 1 5 7 4 2 1 2 3 8 13 14 13 15 16 14 13 15 18 21 22 24 24 21 19 19 19 18 17 17 17 17 17 17 16 16 16 17 18 19 20 19 16 14 12 11 13 16 17 17 19 18 15 13 12 11 10 10 10 10 9 10 11 10 10 10 11 12 13 12 11 12 13 14 14 14
1 1 2 2 1 2 3 3 1 2 1 4 5 2 1 1 4 10 13 13 15 18 17 17 17 17 19 23 27 28 26 24 22 21 20 18 17 16 15 14 15 15 15 15 15 15 15 16 18 19 19 19 18 16 14 13 14 16 17 18 17 15 13 12 12 11 11 11 11 11 11 11 11 12 12 12 12 13 13 13 12 12 13 14 14 14
1 1 1 1 1 1 3 2 1 1 3 5 3 1 3 6 14 19 18 15 15 18 20 20 19 21 25 29 29 27 25 23 21 20 19 18 17 16 15 14 14 14 13 12 12 12 12 13 16 17 17 17 18 17 16 15 15 16 17 17 15 12 11 11 10 9 11 12 12 12 11 11 12 12 13 14 14 15 15 14 14 14 14 14 14 14
0 3 4 3 2 3 3 2 1 3 5 3 3 7 10 14 17 17 18 19 17 17 20 23 24 24 27 30 29 26 23 22 20 19 19 18 17 16 16 15 15 15 15 14 13 12 11 12 12 13 13 15 16 17 17 17 16 16 16 14 12 10 9 9 7 7 8 10 11 11 11 10 11 11 12 13 14 15 16 16 16 16 16 16 16 16
4 6 7 5 4 4 7 8 6 7 10 11 13 14 15 17 15 15 18 21 20 19 21 25 27 27 27 27 26 24 21 19 19 19 18 17 16 15 16 16 16 16 16 16 15 14 12 12 12 12 13 14 15 15 15 16 16 17 16 14 12 11 10 9 8 8 8 8 9 9 9 9 10 10 10 10 10 12 13 13 13 14 14 13 13 13
1 4 6 4 3 3 4 6 7 9 12 15 19 19 17 16 15 16 18 20 21 21 23 25 26 26 24 22 24 24 23 21 22 21 20 19 19 19 19 20 20 20 19 19 17 15 13 13 12 12 13 15 15 14 14 14 14 14 14 13 13 12 11 11 12 12 12 10 9 8 7 7 8 8 8 9 9 10 11 11 10 10 10 10 10 9
2 5 6 4 3 3 4 6 10 15 16 16 19 20 18 16 16 17 20 22 23 22 23 24 24 25 25 25 27 28 27 25 25 25 24 23 22 22 21 21 20 20 20 19 18 17 16 15 14 13 14 14 13 12 12 12 13 12 12 12 11 9 9 11 12 13 14 13 12 10 9 8 7 7 7 6 6 8 10 10 10 9 10 10 9 8
6 5 5 5 6 6 7 8 12 16 16 15 17 19 19 20 21 22 24 25 26 26 26 25 25 26 27 27 26 27 27 24 22 22 21 21 21 20 19 18 16 15 14 15 16 17 17 16 15 13 14 14 13 11 10 10 11 11 11 11 9 7 8 9 11 12 12 12 12 12 11 11 10 8 8 6 5 6 8 8 8 7 8 8 8 6
7 6 5 7 6 4 3 5 6 7 8 10 14 18 21 23 25 25 25 25 25 26 26 25 25 24 22 21 20 20 20 18 17 17 16 16 16 17 17 16 14 13 13 12 12 14 16 16 14 13 13 13 12 11 10 8 9 10 10 10 9 7 7 7 8 10 11 11 11 11 11 11 12 11 10 10 8 7 8 8 7 6 6 6 5 4
7 8 6 6 6 6 8 10 12 13 13 15 17 20 22 24 25 25 23 22 21 21 22 21 20 18 16 14 13 13 14 15 15 15 15 15 15 16 16 14 12 11 13 13 13 13 13 13 13 13 12 11 11 10 9 8 8 8 8 8 8 7 5 4 5 7 9 9 10 10 10 10 10 10 10 11 11 9 8 9 9 8 7 7 6 4
Wind_Direction
169 173 209 200 207 214 207 192 215 234 252 289 300 289 280 291 285 260 268 252 175 160 192 183 191 233 258 279 282 152 153 151 163 165 163 164 161 158 156 157 160 161 162 168 178 185 184 182 185 193 197 198 196 197 199 199 198 197 197 198 194 190 192 194 196 195 193 197 201 201 200 203 212 218 224 226 223 220 222 225 226 225 223 220 215 209
161 194 231 215 211 211 210 214 224 252 260 263 272 279 288 281 267 279 286 249 165 144 195 183 174 236 255 261 238 153 145 151 167 169 167 168 166 162 157 156 161 163 166 172 180 184 183 182 183 187 194 200 200 201 204 205 200 196 197 199 193 186 187 190 194 198 197 199 204 204 205 211 217 220 224 227 225 221 221 221 221 219 219 219 214 208
189 225 238 222 213 210 228 234 215 231 250 255 260 275 291 271 271 296 314 353 93 118 176 181 167 231 265 270 252 151 152 169 174 177 179 175 170 163 157 158 163 165 169 177 183 186 187 189 188 192 198 199 198 206 208 204 199 196 194 197 195 188 187 190 194 202 205 205 208 211 212 217 222 225 228 231 228 223 220 217 215 214 215 215 213 209
204 236 232 220 206 196 239 252 219 235 265 253 250 260 273 270 276 284 317 1 11 99 150 153 163 253 304 329 315 201 163 178 181 183 184 180 177 172 167 168 171 172 176 182 187 191 193 194 197 202 206 202 195 200 205 201 199 197 193 193 195 193 192 194 196 203 210 210 211 216 220 222 226 229 231 229 224 221 221 219 217 213 210 210 209 207
232 244 223 201 200 197 226 252 226 218 263 255 235 228 249 266 239 215 314 350 355 9 71 92 62 319 335 349 310 304 127 179 190 188 190 191 186 176 172 174 180 184 184 186 190 194 197 201 205 208 211 208 199 200 208 207 202 200 196 193 197 199 197 198 199 204 210 212 212 214 218 221 223 227 230 226 219 219 224 224 221 216 209 205 203 204
242 249 227 186 206 207 214 245 217 181 224 264 240 218 223 239 227 185 42 26 17 352 328 87 73 303 321 333 287 293 9 221 198 196 199 201 194 176 173 177 184 188 187 190 195 198 201 205 206 209 213 212 207 209 215 216 209 204 201 198 203 206 201 201 205 208 212 215 214 215 218 220 222 224 225 224 224 224 227 228 223 217 209 201 200 200
234 225 209 197 211 210 214 240 214 167 180 248 241 209 199 222 264 107 87 80 49 288 281 82 119 246 316 313 274 284 331 4 176 218 221 209 203 190 183 182 183 185 186 190 196 198 202 207 208 213 219 216 214 218 219 223 220 211 205 203 206 210 205 202 205 210 215 217 219 221 225 228 230 230 225 224 228 230 229 227 222 215 206 200 199 197
196 189 203 203 206 209 217 237 205 159 158 230 239 197 162 289 301 332 97 116 196 229 322 0 119 134 305 276 284 329 352 1 48 239 240 215 207 201 193 186 185 188 191 194 196 196 199 203 207 214 217 214 217 229 229 226 225 220 214 208 210 214 210 205 204 209 213 217 222 224 227 233 238 239 232 226 228 228 225 221 217 210 205 202 199 195
188 185 203 194 197 207 216 234 200 153 160 235 233 206 185 210 257 319 95 132 196 104 340 314 79 104 271 283 325 25 46 354 342 328 288 230 208 199 191 185 190 194 195 195 191 187 190 195 203 210 211 212 222 242 249 239 232 230 227 219 214 214 212 209 207 209 211 216 222 226 228 230 238 241 235 230 229 223 219 217 212 204 202 204 201 195
228 208 205 178 182 203 216 235 201 156 196 226 197 183 344 39 47 43 96 122 43 65 247 274 10 96 280 314 342 15 35 340 323 325 329 322 177 176 175 171 181 190 191 192 190 189 195 201 209 215 216 218 227 238 246 249 245 241 241 235 225 219 216 215 215 210 208 210 214 225 229 226 234 240 234 226 220 214 211 213 208 199 199 203 202 196
252 243 232 183 188 200 207 224 192 172 191 171 130 112 11 5 28 41 62 84 52 24 254 258 64 97 82 322 339 352 343 332 332 338 8 42 64 84 104 121 141 160 171 185 192 195 200 206 214 221 223 225 234 243 244 247 250 247 248 245 234 227 222 220 223 214 203 203 206 219 231 228 228 235 232 221 210 206 206 206 204 199 197 197 198 195
276 258 257 216 204 192 177 199 189 178 158 106 90 108 62 340 8 21 354 38 70 278 264 256 113 91 107 289 329 353 5 20 25 23 32 46 55 61 74 94 110 124 140 159 174 189 203 214 224 229 230 232 236 241 241 244 250 249 249 248 238 232 229 226 230 224 208 201 205 214 223 224 222 225 226 220 211 206 205 202 200 197 195 192 190 192
310 247 252 247 215 180 151 158 218 179 109 96 81 90 98 314 1 348 308 19 137 245 262 251 137 83 133 211 359 16 31 38 47 53 51 53 54 56 65 80 93 101 106 112 122 144 174 201 231 238 240 244 243 240 241 242 247 249 249 251 247 237 241 240 230 226 219 213 215 213 212 216 218 218 216 212 209 208 205 202 198 193 191 189 188 190
321 292 280 266 242 187 153 144 167 247 123 124 127 122 133 135 107 255 274 23 238 256 277 276 114 118 185 123 349 19 57 54 57 61 60 61 62 61 65 72 81 87 89 92 94 88 83 92 114 195 244 269 259 244 244 245 247 251 250 251 252 241 245 248 234 227 227 224 218 209 207 215 217 217 213 204 203 207 206 202 195 188 186 187 189 187
198 296 274 201 227 204 157 155 161 156 137 165 159 131 146 152 139 194 203 164 219 267 293 288 149 169 158 170 261 67 70 61 61 61 61 64 66 65 65 67 70 72 71 71 68 62 58 53 49 294 275 305 310 244 246 247 249 255 253 247 250 250 247 245 235 229 229 226 217 206 208 214 213 215 213 204 203 208 206 202 195 190 189 190 188 185
168 240 251 222 195 163 162 174 141 113 113 228 144 107 152 180 146 152 168 165 174 214 320 301 128 205 132 142 189 92 70 62 62 60 60 64 65 66 65 62 63 63 62 65 66 63 56 41 3 299 286 287 291 263 260 261 257 260 259 252 252 257 251 237 222 226 234 227 216 209 207 207 206 210 211 205 204 206 206 202 196 193 193 191 186 182
152 243 273 246 184 175 173 173 140 136 165 247 118 141 204 169 134 137 195 127 111 140 280 229 115 79 79 106 69 59 64 65 65 65 68 70 69 69 67 65 65 62 59 63 69 79 92 101 120 263 296 337 310 274 260 276 279 273 273 268 259 253 252 242 222 232 239 227 215 212 209 203 199 204 209 204 198 201 204 201 198 196 193 189 186 183
160 259 290 240 211 222 184 166 153 152 147 117 164 197 170 97 99 110 149 18 67 188 265 256 140 165 151 158 343 37 66 73 71 76 77 74 73 73 72 72 73 71 68 62 57 63 81 95 101 97 112 114 100 92 153 120 45 341 336 311 274 246 242 246 229 224 226 218 214 216 210 201 198 203 207 199 191 195 199 198 198 195 189 186 185 184
153 255 288 260 218 219 174 147 145 256 128 130 171 182 108 116 160 69 143 144 125 193 255 17 98 161 168 210 318 53 85 91 86 86 80 73 72 74 73 72 71 73 73 66 58 56 59 60 55 53 75 128 136 151 177 149 125 57 42 27 339 250 217 204 205 204 208 212 214 214 207 200 199 201 203 196 191 193 195 193 190 186 185 184 183 184
138 127 281 292 272 168 115 103 175 254 322 78 129 93 88 140 165 181 172 155 158 194 203 90 43 310 230 223 155 109 107 104 96 87 81 77 72 70 73 71 67 69 70 69 67 65 62 56 47 50 71 105 150 176 191 173 147 119 94 46 6 272 183 153 172 187 201 209 208 208 206 202 200 198 196 194 192 191 191 189 184 181 180 179 180 185
136 138 223 299 332 103 120 204 186 190 194 141 146 166 187 160 148 175 181 144 145 167 176 144 155 266 254 229 133 125 111 105 102 94 90 89 81 71 73 76 72 69 71 71 71 71 68 65 59 58 65 63 121 171 198 202 192 181 177 157 44 119 152 138 156 184 200 204 203 207 208 204 199 195 190 189 189 188 187 187 185 181 177 177 180 185
157 156 189 275 345 103 226 218 180 198 181 157 170 186 188 185 151 152 238 284 111 141 170 152 162 259 266 163 129 120 108 109 109 106 102 94 86 76 74 80 81 78 76 75 75 76 73 69 65 65 70 69 70 101 149 234 226 219 206 190 159 152 163 169 180 192 201 204 206 209 208 203 199 192 186 186 187 187 188 188 186 182 178 180 183 187
150 120 155 238 251 217 216 72 62 45 123 106 105 192 174 160 135 142 204 253 78 116 134 108 121 248 252 153 124 105 103 106 107 109 105 93 87 84 80 80 82 83 83 81 81 82 79 74 69 68 75 75 72 76 84 98 200 239 233 208 185 178 184 192 198 204 206 207 209 210 205 201 198 193 189 188 187 189 190 185 182 184 186 186 187 193
98 107 149 249 293 296 288 62 53 41 54 67 28 7 39 182 158 149 176 187 137 147 133 85 93 243 209 148 121 109 105 100 98 104 106 97 91 88 84 81 80 82 83 86 87 82 79 82 79 74 75 74 70 69 74 88 113 132 264 221 196 192 199 204 208 213 213 209 208 207 202 199 198 193 190 188 188 189 186 179 182 189 191 191 194 197
60 108 120 103 324 327 326 356 30 31 43 58 338 328 335 33 98 125 148 87 107 179 142 120 161 236 175 138 115 109 103 92 85 88 96 98 93 88 84 81 80 80 79 82 86 81 73 75 78 78 75 70 68 63 64 75 95 147 210 215 197 200 209 212 213 215 215 213 210 205 200 198 196 192 189 189 187 185 182 183 189 194 196 199 198 193
100 97 111 126 173 209 207 203 220 359 15 33 349 344 353 17 51 116 142 80 103 216 73 111 167 177 139 124 108 106 101 92 84 82 86 90 91 89 85 82 79 78 77 75 75 76 70 63 63 61 48 38 43 53 66 73 85 118 170 199 202 214 218 215 214 213 213 215 213 206 200 196 195 193 191 189 185 182 183 187 192 195 199 199 190 178
95 54 59 116 142 170 165 168 186 145 81 47 356 4 2 356 28 91 108 99 149 137 53 96 162 140 137 131 113 102 95 89 82 81 84 87 88 88 85 85 83 79 77 76 75 75 71 65 63 57 51 46 38 38 71 85 84 101 126 166 204 232 228 215 215 218 221 222 220 213 205 198 195 191 189 188 184 182 185 189 193 196 195 188 177 169
97 34 11 67 86 112 127 119 112 102 92 85 51 27 11 3 32 69 90 124 136 114 72 203 152 131 134 127 112 107 98 87 71 72 82 88 91 91 86 86 88 84 79 78 77 75 70 67 68 67 65 61 51 46 50 46 37 47 9 234 240 261 262 238 226 226 230 235 235 224 210 203 197 189 185 187 185 181 183 186 189 187 181 176 171 166
110 44 348 59 77 84 107 115 104 94 87 68 58 43 22 30 48 62 60 39 112 126 153 157 129 110 110 101 90 87 89 85 75 74 82 87 90 91 85 80 81 79 76 76 77 76 72 69 69 71 70 65 62 56 45 30 9 351 313 281 272 274 280 266 246 236 234 237 239 229 215 208 201 190 185 187 183 177 178 181 181 177 173 171 170 166
105 61 318 69 79 61 58 100 104 98 93 65 44 31 28 50 60 59 44 32 57 102 131 127 108 88 82 82 74 71 79 84 82 77 76 76 77 79 76 71 73 76 76 76 78 77 74 73 72 75 75 67 62 56 42 31 22 15 358 308 288 282 283 278 261 248 239 234 231 226 216 209 202 194 190 188 182 176 178 181 178 172 168 169 170 168
74 153 228 74 73 27 9 57 90 96 95 78 46 22 18 40 53 48 40 37 53 80 104 109 107 95 80 81 77 73 76 78 75 67 61 61 64 68 70 69 72 76 77 79 81 79 78 79 80 81 80 71 64 59 49 34 27 29 27 12 344 323 319 310 284 260 248 240 230 223 217 206 199 195 189 182 176 172 174 175 173 169 167 168 170 170
72 140 196 72 85 8 352 55 95 97 88 71 44 18 5 15 54 51 28 21 101 127 122 111 113 120 109 96 81 69 70 73 68 59 55 56 58 62 65 66 69 74 78 83 85 83 82 81 81 82 83 79 73 67 64 57 47 44 38 30 23 6 351 342 316 254 231 221 211 213 214 204 197 194 185 177 170 167 170 171 169 169 170 171 171 171
102 121 123 93 101 129 187 227 324 69 80 53 17 359 340 345 74 70 35 21 65 131 134 129 128 123 115 104 87 72 68 70 67 60 56 57 60 63 64 67 72 75 79 85 87 87 88 85 80 80 82 84 81 73 70 66 58 54 46 34 23 12 9 19 41 148 174 167 165 187 202 202 197 193 188 180 171 167 172 174 173 174 175 175 176 176
89 114 139 128 114 148 168 167 3 25 105 139 320 308 312 27 82 80 57 41 53 81 91 92 105 109 102 96 97 93 83 77 74 72 70 69 71 74 75 77 81 82 82 87 91 94 96 92 86 85 84 85 86 83 77 71 67 65 58 45 39 34 30 29 52 98 142 156 149 160 181 192 195 192 187 183 178 175 175 175 177 179 178 177 179 179
89 98 133 117 107 139 150 118 88 230 207 174 358 341 22 73 84 83 70 57 67 86 92 92 100 107 106 103 104 103 96 89 83 76 75 77 81 86 87 84 85 86 85 87 92 96 100 101 100 98 92 87 88 91 88 81 79 77 67 57 53 49 49 61 85 86 96 138 145 142 158 174 185 188 183 181 182 181 178 176 178 176 171 170 174 174
118 114 121 95 96 122 127 127 144 175 176 97 27 7 23 49 68 73 61 47 57 91 102 104 111 113 111 110 109 107 101 92 81 71 72 81 85 88 90 86 84 85 84 86 89 91 94 100 104 104 102 98 93 90 86 82 82 82 75 68 61 55 55 61 70 74 74 85 96 102 134 157 166 173 177 181 183 182 177 173 172 168 164 166 169 167
113 121 103 77 77 112 112 88 92 116 147 344 19 33 32 11 353 39 76 56 52 103 116 117 122 123 121 121 121 117 104 87 74 64 70 82 88 89 89 88 86 83 82 83 88 91 92 97 104 106 108 106 97 90 86 86 90 91 86 80 75 72 72 68 65 68 70 73 78 83 108 133 142 149 158 166 173 178 178 169 162 159 159 159 160 160
86 118 139 122 82 90 109 111 116 156 204 193 126 34 11 359 333 317 104 80 46 124 132 130 133 138 136 137 140 136 108 77 66 58 71 83 91 94 93 92 91 89 87 85 88 93 94 94 96 100 103 103 96 92 91 92 96 97 92 87 83 80 79 77 76 78 82 85 86 87 96 114 128 138 145 149 151 160 169 165 159 160 158 150 148 150
61 59 100 104 87 100 122 138 161 191 210 160 96 334 343 341 329 325 108 112 35 145 144 140 143 153 154 155 160 160 111 80 109 99 89 92 95 97 97 95 93 92 93 91 88 87 87 89 94 97 96 93 91 91 96 100 103 103 98 93 90 86 79 76 76 78 82 87 91 90 93 104 121 136 147 151 148 150 159 164 162 160 155 143 141 150
38 24 63 94 108 114 105 109 150 201 239 20 346 317 329 335 330 314 163 195 68 129 146 146 146 156 161 159 157 136 51 141 146 125 109 104 100 99 98 95 94 94 96 96 92 88 85 85 88 87 80 78 81 84 92 101 103 100 97 94 91 85 78 72 69 73 78 84 90 92 93 99 108 120 135 154 163 160 166 177 178 173 168 167 174 184
23 26 75 112 112 98 96 115 142 267 227 209 311 313 331 345 340 170 181 172 111 112 134 141 140 149 157 153 142 106 102 129 134 126 117 110 105 102 98 95 95 93 91 92 94 93 88 82 80 77 73 74 79 80 84 93 94 90 88 88 84 79 76 73 70 72 79 86 90 92 95 101 104 107 115 130 150 156 159 169 177 180 184 190 192 186
11 23 49 84 103 106 107 112 97 289 228 342 319 315 350 24 215 160 109 128 126 121 129 137 138 145 143 131 125 119 120 127 130 126 120 114 108 107 106 106 105 101 97 94 91 89 85 79 76 74 71 72 76 78 79 83 86 83 80 78 77 76 78 79 76 73 77 86 94 96 97 101 104 108 112 120 135 143 141 142 154 163 167 168 166 165
144 111 80 70 96 112 98 84 106 197 276 350 341 322 18 56 156 128 111 115 123 124 125 126 130 139 136 125 122 125 127 128 129 127 121 114 109 107 110 112 109 106 105 103 96 90 86 82 78 73 68 67 70 74 76 78 79 76 73 71 70 71 74 76 75 74 75 81 89 94 99 105 108 112 117 122 132 142 142 140 144 148 149 153 160 167
268 178 168 223 272 114 131 149 173 212 310 326 331 95 101 130 145 139 127 120 120 124 124 120 121 132 135 130 127 128 127 126 126 126 120 112 106 101 98 95 91 89 90 91 92 91 90 87 83 77 70 67 68 70 72 75 76 73 69 67 66 64 64 63 64 69 74 79 85 90 95 103 106 110 113 116 124 134 139 141 144 142 141 147 154 159
148 106 100 93 58 66 95 113 78 9 357 5 112 118 116 129 143 145 137 129 126 129 130 126 126 132 135 134 131 128 127 126 127 127 122 113 105 98 92 87 84 80 77 76 75 76 79 82 83 80 74 67 64 66 68 70 72 70 67 67 63 57 56 55 57 68 74 80 87 91 94 98 101 104 106 108 116 125 129 133 137 135 135 140 144 147
132 111 93 92 110 90 58 51 46 30 37 67 101 117 122 128 135 137 133 130 131 136 137 134 134 136 137 136 133 130 128 128 126 125 122 115 107 99 93 87 82 78 75 71 68 68 72 78 78 77 72 65 62 64 65 67 70 71 71 71 68 64 61 58 61 70 73 76 84 90 98 105 104 102 103 105 109 116 120 128 134 134 133 135 140 145
76 87 84 89 143 137 55 37 38 41 52 76 98 109 114 120 126 128 128 127 131 135 135 134 135 135 134 131 128 125 124 122 118 116 114 108 100 93 88 82 77 72 68 63 61 61 64 69 72 70 67 65 64 66 66 66 69 72 74 74 71 71 72 71 70 71 72 73 76 79 89 105 110 112 116 115 114 114 114 120 129 133 131 131 134 139
105 96 90 79 77 87 91 87 76 68 68 82 98 106 111 114 117 117 116 118 121 123 125 127 127 126 124 120 117 116 115 112 109 107 104 99 93 87 83 77 71 67 64 61 58 54 52 54 57 59 62 65 67 70 70 67 65 65 68 70 69 68 71 72 73 74 73 72 73 73 75 83 93 104 114 119 128 133 127 125 130 134 132 129 129 132
124 111 101 103 97 83 92 109 97 78 68 74 91 105 111 114 116 115 114 117 120 122 124 125 123 121 119 116 114 113 112 108 103 101 101 98 94 90 85 78 70 65 64 64 61 55 49 47 48 58 68 69 67 68 70 66 62 60 60 63 66 67 69 72 76 79 77 75 74 75 79 85 88 94 101 110 136 159 154 145 143 147 145 141 140 141
105 119 125 121 122 110 115 144 131 99 82 88 100 108 113 116 117 117 117 118 120 122 124 125 125 123 118 114 113 113 111 109 106 103 102 101 99 94 88 82 76 70 69 73 69 56 49 50 57 72 81 77 69 68 69 67 67 67 67 66 62 62 70 75 75 78 78 76 75 74 76 83 88 94 100 104 113 132 140 135 129 131 138 138 132 130
126 161 158 122 114 121 129 134 126 115 113 117 117 115 117 118 116 114 114 117 119 121 122 123 125 125 119 115 116 115 115 116 114 109 107 107 106 102 94 87 80 74 72 74 69 56 50 58 73 83 88 84 76 69 64 62 65 68 74 74 65 61 72 77 72 77 81 80 77 74 70 71 77 84 91 95 96 98 105 112 113 110 109 107 101 93